GW0265 Weather Reports


Display with metric or nautical units.
time (UTC)temp
F
wind
direction
speed
MPH
gust
MPH
rain 1hr
in
rain 24hr
in
rain mn
in
humidity
%
barometer
mb
20260508130116 50 37 0.0 2.0 0.00 0.00 0.00 75 1017.4
20260508125130 48 58 0.0 0.0 0.00 0.00 0.00 76 1017.3
20260508123014 46 39 0.0 3.0 0.00 0.00 0.00 77 1017.3
20260508120827 45 205 0.0 1.0 0.00 0.00 0.00 77 1017.1
20260508114652 45 165 0.0 0.0 0.00 0.00 0.00 75 1017.0
20260508113647 45 162 0.0 0.0 0.00 0.00 0.00 75 1016.9
20260508112650 46 281 0.0 2.0 0.00 0.00 0.00 70 1016.9
20260508111658 45 179 0.0 2.0 0.00 0.00 0.00 70 1016.9
20260508105623 44 122 0.0 0.0 0.00 0.00 0.00 75 1016.7
20260508104619 44 154 0.0 0.0 0.00 0.00 0.00 75 1016.7
20260508103627 43 200 0.0 0.0 0.00 0.00 0.00 77 1016.7
20260508102556 43 139 0.0 0.0 0.00 0.00 0.00 76 1016.8
20260508101547 43 6 0.0 0.0 0.00 0.00 0.00 77 1016.7
20260508100553 42 162 0.0 0.0 0.00 0.00 0.00 78 1016.8
20260508095531 42 184 0.0 1.0 0.00 0.00 0.00 79 1016.9
20260508093405 42 170 0.0 0.0 0.00 0.00 0.00 79 1016.7
20260508092342 42 165 0.0 0.0 0.00 0.00 0.00 79 1016.6
20260508091332 42 226 0.0 1.0 0.00 0.00 0.00 77 1016.7
20260508090319 42 250 0.0 0.0 0.00 0.00 0.00 78 1016.7
20260508084220 44 135 0.0 0.0 0.00 0.00 0.00 74 1016.6
20260508083222 44 136 0.0 0.0 0.00 0.00 0.00 73 1016.7
20260508082226 45 170 0.0 0.0 0.00 0.00 0.00 71 1016.6
20260508081250 46 214 0.0 1.0 0.00 0.00 0.00 68 1016.6
20260508080315 46 134 0.0 0.0 0.00 0.00 0.00 66 1016.7
20260508075319 46 217 0.0 1.0 0.00 0.00 0.00 68 1016.7
20260508074251 46 162 0.0 0.0 0.00 0.00 0.00 67 1016.6
20260508073219 46 167 0.0 0.0 0.00 0.00 0.00 67 1016.7
20260508072204 47 169 0.0 0.0 0.00 0.00 0.00 66 1016.6
20260508070054 49 137 0.0 2.0 0.00 0.00 0.00 61 1016.7
20260508065022 50 207 0.0 5.0 0.00 0.00 0.00 58 1016.7
20260508063948 50 211 0.0 3.0 0.00 0.00 0.00 58 1016.7
20260508063012 51 177 1.0 4.0 0.00 0.00 0.00 56 1016.7
20260508061938 51 128 0.0 1.0 0.00 0.00 0.00 56 1016.7
20260508060943 52 131 0.0 4.0 0.00 0.00 0.00 56 1016.7
20260508055935 52 122 0.0 1.0 0.00 0.00 0.00 54 1016.8
20260508054938 53 115 0.0 4.0 0.00 0.00 0.00 53 1016.8
20260508053914 53 54 0.0 3.0 0.00 0.00 0.00 50 1016.8
20260508052934 54 236 0.0 2.0 0.00 0.00 0.00 50 1016.8
20260508051921 55 43 0.0 0.0 0.00 0.00 0.00 47 1016.8
20260508045754 56 236 0.0 3.0 0.00 0.00 0.00 43 1016.8
20260508044735 56 166 0.0 2.0 0.00 0.00 0.00 43 1016.8
20260508043741 57 61 0.0 1.0 0.00 0.00 0.00 41 1016.7
20260508042802 57 129 0.0 1.0 0.00 0.00 0.00 41 1016.6
20260508041744 59 205 0.0 0.0 0.00 0.00 0.00 38 1016.5
20260508040723 59 33 0.0 1.0 0.00 0.00 0.00 35 1016.5
20260508035744 60 72 0.0 0.0 0.00 0.00 0.00 34 1016.4
20260508034720 61 323 0.0 2.0 0.00 0.00 0.00 32 1016.2
20260508033718 61 314 0.0 1.0 0.00 0.00 0.00 32 1016.2
20260508032654 61 43 0.0 0.0 0.00 0.00 0.00 31 1016.0
20260508025442 63 22 0.0 6.0 0.00 0.00 0.00 35 1015.8
20260508023315 64 46 0.0 5.0 0.00 0.00 0.00 36 1015.7
20260508021242 66 76 0.0 4.0 0.00 0.00 0.00 34 1015.7
20260508020244 66 60 0.0 2.0 0.00 0.00 0.00 34 1015.7
20260508015215 67 27 1.0 8.0 0.00 0.00 0.00 34 1015.6
20260508013020 69 299 1.0 9.0 0.00 0.00 0.00 35 1015.6
20260508012018 70 12 0.0 9.0 0.00 0.00 0.00 32 1015.8
20260508011040 71 271 0.0 9.0 0.00 0.00 0.00 32 1015.8
20260508010019 71 12 1.0 11.0 0.00 0.00 0.00 32 1016.0
20260508004955 71 46 2.0 14.0 0.00 0.00 0.00 30 1015.8
20260508004006 71 23 2.0 14.0 0.00 0.00 0.00 30 1015.8
20260508002959 71 15 2.0 11.0 0.00 0.00 0.00 28 1015.8
20260508002014 72 225 1.0 8.0 0.00 0.00 0.00 30 1015.8
20260508001014 71 47 2.0 12.0 0.00 0.00 0.00 27 1015.8
20260507235944 71 322 3.0 14.0 0.00 0.00 0.00 30 1015.8
20260507235000 72 214 3.0 14.0 0.00 0.00 0.00 30 1015.7
20260507233950 72 46 2.0 8.0 0.00 0.00 0.00 26 1015.6
20260507231836 73 34 2.0 11.0 0.00 0.00 0.00 27 1015.7
20260507230816 73 79 1.0 11.0 0.00 0.00 0.00 27 1015.8
20260507225831 73 52 2.0 8.0 0.00 0.00 0.00 27 1015.8
20260507224804 73 44 1.0 10.0 0.00 0.00 0.00 27 1015.9
20260507223755 73 63 2.0 10.0 0.00 0.00 0.00 26 1016.0
20260507222812 73 162 1.0 7.0 0.00 0.00 0.00 29 1016.1
20260507221740 73 296 0.0 12.0 0.00 0.00 0.00 27 1016.2
20260507215643 72 19 2.0 9.0 0.00 0.00 0.00 30 1016.5
20260507214630 72 23 1.0 3.0 0.00 0.00 0.00 31 1016.6
20260507213651 72 25 2.0 8.0 0.00 0.00 0.00 29 1016.5
20260507212623 72 14 2.0 8.0 0.00 0.00 0.00 29 1016.6
20260507211551 72 16 2.0 8.0 0.00 0.00 0.00 32 1016.6
20260507205457 72 80 2.0 12.0 0.00 0.00 0.00 33 1016.7
20260507203333 71 311 2.0 14.0 0.00 0.00 0.00 35 1016.9
20260507201203 71 53 1.0 8.0 0.00 0.00 0.00 35 1017.1
20260507200206 71 335 1.0 8.0 0.00 0.00 0.00 34 1017.1
20260507195154 71 92 0.0 6.0 0.00 0.00 0.00 33 1017.3
20260507194120 71 35 1.0 6.0 0.00 0.00 0.00 34 1017.3
20260507193050 70 42 1.0 6.0 0.00 0.00 0.00 34 1017.4
20260507192037 70 81 0.0 4.0 0.00 0.00 0.00 36 1017.5
20260507191003 70 55 0.0 8.0 0.00 0.00 0.00 35 1017.6
20260507184821 69 19 0.0 12.0 0.00 0.00 0.00 35 1017.7
20260507183817 68 31 0.0 4.0 0.00 0.00 0.00 38 1017.9
20260507182817 67 30 0.0 10.0 0.00 0.00 0.00 38 1018.0
20260507181825 67 271 0.0 10.0 0.00 0.00 0.00 39 1018.0
20260507180825 66 343 0.0 7.0 0.00 0.00 0.00 42 1018.1
20260507175819 66 298 0.0 7.0 0.00 0.00 0.00 41 1018.2
20260507174839 65 71 1.0 4.0 0.00 0.00 0.00 41 1018.3
20260507173823 65 345 0.0 4.0 0.00 0.00 0.00 41 1018.4
20260507172828 64 287 0.0 4.0 0.00 0.00 0.00 44 1018.4
20260507171758 63 345 0.0 7.0 0.00 0.00 0.00 49 1018.4
20260507170746 62 40 1.0 7.0 0.00 0.00 0.00 51 1018.4
20260507164656 61 277 1.0 6.0 0.00 0.00 0.00 55 1018.3
20260507163634 60 53 1.0 6.0 0.00 0.00 0.00 57 1018.4
20260507162601 59 44 1.0 6.0 0.00 0.00 0.00 57 1018.4
20260507160422 58 305 0.0 5.0 0.00 0.00 0.00 61 1018.4
20260507155351 58 37 0.0 6.0 0.00 0.00 0.00 61 1018.5
20260507154409 58 322 0.0 6.0 0.00 0.00 0.00 62 1018.5
20260507153341 57 15 0.0 4.0 0.00 0.00 0.00 60 1018.6
20260507152354 57 335 0.0 4.0 0.00 0.00 0.00 62 1018.7
20260507151355 57 159 0.0 9.0 0.00 0.00 0.00 62 1018.7
20260507150320 56 311 0.0 9.0 0.00 0.00 0.00 64 1018.8
20260507144156 56 177 0.0 6.0 0.00 0.00 0.00 64 1018.8
20260507143216 55 201 0.0 6.0 0.00 0.00 0.00 66 1018.8
20260507142212 55 296 0.0 5.0 0.00 0.00 0.00 67 1018.7
20260507141159 54 67 0.0 3.0 0.00 0.00 0.00 72 1018.7
20260507140153 53 53 0.0 0.0 0.00 0.00 0.00 74 1018.7
20260507135211 53 44 0.0 0.0 0.00 0.00 0.00 73 1018.6
20260507134219 53 30 0.0 0.0 0.00 0.00 0.00 74 1018.7
20260507133234 52 233 0.0 0.0 0.00 0.00 0.00 76 1018.6
20260507132226 53 67 0.0 0.0 0.00 0.00 0.00 75 1018.7